| time (UTC) | temp C | wind direction | speed KPH | gust KPH | rain 1hr cm | rain 24hr cm | rain mn cm | humidity % | barometer mb |
| 20260503222404 | 33 | 211 | 8.0 | 19.3 | 0.00 | 0.00 | 0.00 | 11 | 1009.0 |
| 20260503221403 | 33 | 199 | 3.2 | 14.5 | 0.00 | 0.00 | 0.00 | 13 | 1009.1 |
| 20260503220903 | 33 | 228 | 3.2 | 22.5 | 0.00 | 0.00 | 0.00 | 14 | 1009.2 |
| 20260503220403 | 32 | 199 | 8.0 | 22.5 | 0.00 | 0.00 | 0.00 | 13 | 1009.2 |
| 20260503215903 | 32 | 169 | 3.2 | 14.5 | 0.00 | 0.00 | 0.00 | 17 | 1009.3 |
| 20260503215404 | 32 | 43 | 3.2 | 16.1 | 0.00 | 0.00 | 0.00 | 18 | 1009.2 |
| 20260503214904 | 32 | 101 | 4.8 | 16.1 | 0.00 | 0.00 | 0.00 | 19 | 1009.3 |
| 20260503214403 | 32 | 175 | 4.8 | 14.5 | 0.00 | 0.00 | 0.00 | 19 | 1009.3 |
| 20260503213903 | 33 | 155 | 4.8 | 19.3 | 0.00 | 0.00 | 0.00 | 18 | 1009.5 |
| 20260503213404 | 32 | 113 | 4.8 | 19.3 | 0.00 | 0.00 | 0.00 | 18 | 1009.6 |
| 20260503212903 | 32 | 110 | 4.8 | 19.3 | 0.00 | 0.00 | 0.00 | 19 | 1009.8 |
| 20260503212403 | 32 | 99 | 8.0 | 19.3 | 0.00 | 0.00 | 0.00 | 19 | 1009.8 |
| 20260503211404 | 31 | 110 | 4.8 | 12.9 | 0.00 | 0.00 | 0.00 | 21 | 1010.2 |
| 20260503210904 | 31 | 127 | 3.2 | 14.5 | 0.00 | 0.00 | 0.00 | 21 | 1010.3 |
| 20260503210403 | 31 | 138 | 4.8 | 14.5 | 0.00 | 0.00 | 0.00 | 21 | 1010.3 |
| 20260503205904 | 31 | 95 | 4.8 | 12.9 | 0.00 | 0.00 | 0.00 | 22 | 1010.5 |
| 20260503204904 | 31 | 214 | 4.8 | 20.9 | 0.00 | 0.00 | 0.00 | 22 | 1010.6 |
| 20260503204404 | 30 | 157 | 3.2 | 20.9 | 0.00 | 0.00 | 0.00 | 21 | 1010.5 |
| 20260503203904 | 31 | 187 | 6.4 | 20.9 | 0.00 | 0.00 | 0.00 | 21 | 1010.6 |
| 20260503203404 | 31 | 126 | 8.0 | 16.1 | 0.00 | 0.00 | 0.00 | 21 | 1010.6 |
| 20260503201903 | 30 | 204 | 8.0 | 14.5 | 0.00 | 0.00 | 0.00 | 21 | 1010.8 |
| 20260503200904 | 30 | 169 | 4.8 | 11.3 | 0.00 | 0.00 | 0.00 | 23 | 1011.0 |
| 20260503195904 | 30 | 181 | 3.2 | 19.3 | 0.00 | 0.00 | 0.00 | 23 | 1011.3 |
| 20260503194904 | 30 | 97 | 4.8 | 14.5 | 0.00 | 0.00 | 0.00 | 24 | 1011.4 |
| 20260503194404 | 30 | 99 | 4.8 | 14.5 | 0.00 | 0.00 | 0.00 | 25 | 1011.6 |
| 20260503193904 | 29 | 147 | 3.2 | 16.1 | 0.00 | 0.00 | 0.00 | 25 | 1011.6 |
| 20260503193404 | 29 | 103 | 4.8 | 16.1 | 0.00 | 0.00 | 0.00 | 26 | 1011.7 |
| 20260503192903 | 29 | 223 | 6.4 | 14.5 | 0.00 | 0.00 | 0.00 | 25 | 1011.8 |
| 20260503192404 | 29 | 163 | 3.2 | 12.9 | 0.00 | 0.00 | 0.00 | 25 | 1011.9 |
| 20260503191903 | 29 | 184 | 4.8 | 14.5 | 0.00 | 0.00 | 0.00 | 27 | 1011.9 |
| 20260503191404 | 28 | 116 | 4.8 | 16.1 | 0.00 | 0.00 | 0.00 | 28 | 1012.0 |
| 20260503190904 | 28 | 106 | 3.2 | 16.1 | 0.00 | 0.00 | 0.00 | 28 | 1011.9 |
| 20260503190403 | 28 | 105 | 4.8 | 14.5 | 0.00 | 0.00 | 0.00 | 28 | 1012.0 |
| 20260503185904 | 28 | 127 | 3.2 | 12.9 | 0.00 | 0.00 | 0.00 | 28 | 1012.1 |
| 20260503185404 | 28 | 102 | 3.2 | 12.9 | 0.00 | 0.00 | 0.00 | 28 | 1012.1 |
| 20260503184904 | 28 | 125 | 4.8 | 12.9 | 0.00 | 0.00 | 0.00 | 28 | 1012.2 |
| 20260503184404 | 28 | 118 | 4.8 | 19.3 | 0.00 | 0.00 | 0.00 | 28 | 1012.3 |
| 20260503183904 | 28 | 134 | 4.8 | 19.3 | 0.00 | 0.00 | 0.00 | 28 | 1012.3 |
| 20260503183403 | 28 | 166 | 4.8 | 19.3 | 0.00 | 0.00 | 0.00 | 28 | 1012.4 |
| 20260503182904 | 28 | 116 | 4.8 | 14.5 | 0.00 | 0.00 | 0.00 | 28 | 1012.5 |
| 20260503182403 | 27 | 119 | 4.8 | 16.1 | 0.00 | 0.00 | 0.00 | 28 | 1012.5 |
| 20260503181903 | 28 | 94 | 4.8 | 16.1 | 0.00 | 0.00 | 0.00 | 28 | 1012.6 |
| 20260503181404 | 27 | 116 | 3.2 | 19.3 | 0.00 | 0.00 | 0.00 | 28 | 1012.7 |
| 20260503180904 | 27 | 120 | 4.8 | 19.3 | 0.00 | 0.00 | 0.00 | 28 | 1012.7 |
| 20260503180403 | 27 | 129 | 3.2 | 11.3 | 0.00 | 0.00 | 0.00 | 28 | 1012.7 |
| 20260503175903 | 27 | 190 | 3.2 | 11.3 | 0.00 | 0.00 | 0.00 | 28 | 1013.0 |
| 20260503175403 | 27 | 162 | 3.2 | 16.1 | 0.00 | 0.00 | 0.00 | 29 | 1013.1 |
| 20260503174404 | 27 | 108 | 8.0 | 16.1 | 0.00 | 0.00 | 0.00 | 28 | 1013.2 |
| 20260503173904 | 27 | 88 | 1.6 | 14.5 | 0.00 | 0.00 | 0.00 | 29 | 1013.3 |
| 20260503173404 | 27 | 153 | 4.8 | 14.5 | 0.00 | 0.00 | 0.00 | 29 | 1013.4 |
| 20260503172904 | 27 | 104 | 3.2 | 14.5 | 0.00 | 0.00 | 0.00 | 29 | 1013.4 |
| 20260503172404 | 27 | 175 | 6.4 | 14.5 | 0.00 | 0.00 | 0.00 | 29 | 1013.3 |
| 20260503171403 | 27 | 165 | 6.4 | 14.5 | 0.00 | 0.00 | 0.00 | 29 | 1013.4 |
| 20260503170903 | 27 | 71 | 4.8 | 14.5 | 0.00 | 0.00 | 0.00 | 29 | 1013.7 |
| 20260503170403 | 27 | 141 | 4.8 | 14.5 | 0.00 | 0.00 | 0.00 | 29 | 1013.6 |
| 20260503150904 | 25 | 111 | 1.6 | 11.3 | 0.00 | 0.00 | 0.00 | 34 | 1013.4 |
| 20260503150403 | 24 | 189 | 3.2 | 11.3 | 0.00 | 0.00 | 0.00 | 34 | 1013.6 |
| 20260503131403 | 22 | 150 | 1.6 | 4.8 | 0.00 | 0.00 | 0.00 | 36 | 1012.8 |
| 20260503130904 | 22 | 107 | 0.0 | 4.8 | 0.00 | 0.00 | 0.00 | 36 | 1012.8 |
| 20260503130403 | 22 | 181 | 1.6 | 4.8 | 0.00 | 0.00 | 0.00 | 36 | 1012.9 |
| 20260503110404 | 23 | 136 | 3.2 | 9.7 | 0.00 | 0.00 | 0.00 | 34 | 1012.4 |
| 20260503090404 | 24 | 127 | 3.2 | 14.5 | 0.00 | 0.00 | 0.00 | 31 | 1012.2 |
| 20260503081404 | 25 | 190 | 1.6 | 11.3 | 0.00 | 0.00 | 0.00 | 30 | 1012.3 |
| 20260503080903 | 25 | 114 | 3.2 | 11.3 | 0.00 | 0.00 | 0.00 | 30 | 1012.4 |
| 20260503080403 | 25 | 152 | 1.6 | 12.9 | 0.00 | 0.00 | 0.00 | 30 | 1012.5 |
| 20260503072404 | 25 | 208 | 3.2 | 9.7 | 0.00 | 0.00 | 0.00 | 29 | 1012.4 |
| 20260503071903 | 25 | 108 | 3.2 | 12.9 | 0.00 | 0.00 | 0.00 | 29 | 1012.5 |
| 20260503071403 | 25 | 107 | 3.2 | 12.9 | 0.00 | 0.00 | 0.00 | 29 | 1012.6 |
| 20260503070904 | 25 | 158 | 3.2 | 9.7 | 0.00 | 0.00 | 0.00 | 29 | 1012.6 |
| 20260503070403 | 25 | 198 | 3.2 | 14.5 | 0.00 | 0.00 | 0.00 | 29 | 1012.6 |
| 20260503054903 | 26 | 121 | 1.6 | 9.7 | 0.00 | 0.00 | 0.00 | 26 | 1011.8 |
| 20260503054404 | 26 | 124 | 3.2 | 9.7 | 0.00 | 0.00 | 0.00 | 26 | 1011.7 |
| 20260503053404 | 26 | 111 | 3.2 | 11.3 | 0.00 | 0.00 | 0.00 | 25 | 1011.7 |
| 20260503052903 | 27 | 130 | 4.8 | 12.9 | 0.00 | 0.00 | 0.00 | 25 | 1011.7 |
| 20260503052404 | 27 | 106 | 3.2 | 12.9 | 0.00 | 0.00 | 0.00 | 25 | 1011.7 |
| 20260503051904 | 27 | 111 | 4.8 | 12.9 | 0.00 | 0.00 | 0.00 | 25 | 1011.7 |
| 20260503051403 | 27 | 95 | 4.8 | 12.9 | 0.00 | 0.00 | 0.00 | 25 | 1011.9 |
| 20260503050404 | 27 | 128 | 4.8 | 16.1 | 0.00 | 0.00 | 0.00 | 25 | 1011.6 |
| 20260503045904 | 27 | 109 | 8.0 | 14.5 | 0.00 | 0.00 | 0.00 | 25 | 1011.7 |
| 20260503045404 | 27 | 113 | 4.8 | 12.9 | 0.00 | 0.00 | 0.00 | 25 | 1011.6 |
| 20260503044905 | 27 | 130 | 3.2 | 11.3 | 0.00 | 0.00 | 0.00 | 25 | 1011.6 |
| 20260503044403 | 27 | 131 | 3.2 | 11.3 | 0.00 | 0.00 | 0.00 | 25 | 1011.5 |
| 20260503043904 | 27 | 98 | 3.2 | 4.8 | 0.00 | 0.00 | 0.00 | 24 | 1011.6 |
| 20260503043404 | 27 | 125 | 1.6 | 4.8 | 0.00 | 0.00 | 0.00 | 24 | 1011.5 |
| 20260503042903 | 27 | 119 | 3.2 | 4.8 | 0.00 | 0.00 | 0.00 | 24 | 1011.4 |
| 20260503042404 | 27 | 121 | 1.6 | 9.7 | 0.00 | 0.00 | 0.00 | 24 | 1011.3 |
| 20260503041904 | 27 | 116 | 3.2 | 9.7 | 0.00 | 0.00 | 0.00 | 24 | 1011.2 |
| 20260503041404 | 27 | 114 | 1.6 | 9.7 | 0.00 | 0.00 | 0.00 | 24 | 1011.1 |
| 20260503040903 | 27 | 98 | 3.2 | 9.7 | 0.00 | 0.00 | 0.00 | 24 | 1011.0 |
| 20260503040403 | 27 | 118 | 1.6 | 11.3 | 0.00 | 0.00 | 0.00 | 23 | 1010.9 |
| 20260503035903 | 27 | 119 | 1.6 | 11.3 | 0.00 | 0.00 | 0.00 | 23 | 1010.8 |
| 20260503034903 | 27 | 120 | 3.2 | 11.3 | 0.00 | 0.00 | 0.00 | 23 | 1010.7 |
| 20260503034403 | 27 | 135 | 4.8 | 11.3 | 0.00 | 0.00 | 0.00 | 23 | 1010.8 |
| 20260503033903 | 27 | 116 | 4.8 | 11.3 | 0.00 | 0.00 | 0.00 | 23 | 1010.8 |
| 20260503033402 | 27 | 129 | 3.2 | 8.0 | 0.00 | 0.00 | 0.00 | 23 | 1010.8 |
| 20260503032902 | 27 | 112 | 1.6 | 9.7 | 0.00 | 0.00 | 0.00 | 23 | 1010.8 |
| 20260503032403 | 27 | 106 | 3.2 | 11.3 | 0.00 | 0.00 | 0.00 | 23 | 1010.8 |
| 20260503031903 | 28 | 109 | 3.2 | 16.1 | 0.00 | 0.00 | 0.00 | 22 | 1010.8 |
| 20260503030903 | 28 | 119 | 3.2 | 14.5 | 0.00 | 0.00 | 0.00 | 22 | 1010.7 |
| 20260503030402 | 28 | 106 | 8.0 | 14.5 | 0.00 | 0.00 | 0.00 | 22 | 1010.6 |
| 20260503025902 | 28 | 130 | 4.8 | 12.9 | 0.00 | 0.00 | 0.00 | 21 | 1010.5 |
| 20260503025402 | 28 | 86 | 3.2 | 9.7 | 0.00 | 0.00 | 0.00 | 20 | 1010.5 |
| 20260503024902 | 28 | 120 | 1.6 | 9.7 | 0.00 | 0.00 | 0.00 | 20 | 1010.4 |
| 20260503024402 | 28 | 99 | 3.2 | 9.7 | 0.00 | 0.00 | 0.00 | 20 | 1010.3 |
| 20260503023902 | 28 | 82 | 3.2 | 11.3 | 0.00 | 0.00 | 0.00 | 19 | 1010.3 |
| 20260503023402 | 28 | 102 | 3.2 | 11.3 | 0.00 | 0.00 | 0.00 | 19 | 1010.3 |
| 20260503022902 | 28 | 114 | 3.2 | 11.3 | 0.00 | 0.00 | 0.00 | 19 | 1010.3 |
| 20260503022403 | 28 | 123 | 3.2 | 4.8 | 0.00 | 0.00 | 0.00 | 19 | 1010.4 |
| 20260503021902 | 28 | 120 | 1.6 | 4.8 | 0.00 | 0.00 | 0.00 | 19 | 1010.3 |
| 20260503021402 | 28 | 106 | 1.6 | 4.8 | 0.00 | 0.00 | 0.00 | 19 | 1010.3 |
| 20260503020902 | 28 | 53 | 1.6 | 4.8 | 0.00 | 0.00 | 0.00 | 19 | 1010.2 |
| 20260503020402 | 29 | 96 | 1.6 | 4.8 | 0.00 | 0.00 | 0.00 | 19 | 1010.2 |
| 20260503015902 | 29 | 77 | 1.6 | 4.8 | 0.00 | 0.00 | 0.00 | 19 | 1010.3 |
| 20260503014903 | 29 | 59 | 1.6 | 4.8 | 0.00 | 0.00 | 0.00 | 18 | 1010.4 |
| 20260503014403 | 30 | 55 | 1.6 | 4.8 | 0.00 | 0.00 | 0.00 | 18 | 1010.4 |
| 20260503013902 | 30 | 58 | 0.0 | 1.6 | 0.00 | 0.00 | 0.00 | 18 | 1010.4 |
| 20260503013402 | 30 | 74 | 0.0 | 4.8 | 0.00 | 0.00 | 0.00 | 17 | 1010.4 |
| 20260503012902 | 30 | 38 | 0.0 | 9.7 | 0.00 | 0.00 | 0.00 | 17 | 1010.3 |
| 20260503012402 | 30 | 69 | 3.2 | 9.7 | 0.00 | 0.00 | 0.00 | 17 | 1010.4 |
| 20260503011902 | 30 | 212 | 0.0 | 4.8 | 0.00 | 0.00 | 0.00 | 17 | 1010.5 |
| 20260503011402 | 30 | 215 | 1.6 | 4.8 | 0.00 | 0.00 | 0.00 | 17 | 1010.5 |
| 20260503010403 | 30 | 238 | 1.6 | 4.8 | 0.00 | 0.00 | 0.00 | 17 | 1010.7 |
| 20260503005902 | 30 | 116 | 0.0 | 1.6 | 0.00 | 0.00 | 0.00 | 17 | 1010.7 |
| 20260503005402 | 30 | 97 | 0.0 | 4.8 | 0.00 | 0.00 | 0.00 | 17 | 1010.7 |
| 20260503004903 | 30 | 108 | 1.6 | 4.8 | 0.00 | 0.00 | 0.00 | 16 | 1010.6 |
| 20260503003902 | 30 | 16 | 0.0 | 11.3 | 0.00 | 0.00 | 0.00 | 16 | 1010.5 |
| 20260503003403 | 30 | 22 | 1.6 | 11.3 | 0.00 | 0.00 | 0.00 | 16 | 1010.4 |
| 20260503002903 | 30 | 46 | 3.2 | 11.3 | 0.00 | 0.00 | 0.00 | 16 | 1010.6 |
| 20260503002402 | 30 | 62 | 3.2 | 4.8 | 0.00 | 0.00 | 0.00 | 15 | 1010.5 |
| 20260503001902 | 30 | 274 | 1.6 | 3.2 | 0.00 | 0.00 | 0.00 | 15 | 1010.6 |
| 20260503001403 | 30 | 264 | 1.6 | 4.8 | 0.00 | 0.00 | 0.00 | 15 | 1010.6 |
| 20260503000903 | 30 | 78 | 3.2 | 4.8 | 0.00 | 0.00 | 0.00 | 14 | 1010.7 |
| 20260503000403 | 31 | 32 | 3.2 | 4.8 | 0.00 | 0.00 | 0.00 | 13 | 1010.6 |
| 20260502235903 | 31 | 127 | 1.6 | 9.7 | 0.00 | 0.00 | 0.00 | 15 | 1010.6 |
| 20260502235402 | 31 | 162 | 3.2 | 9.7 | 0.00 | 0.00 | 0.00 | 15 | 1010.6 |
| 20260502234903 | 31 | 147 | 1.6 | 9.7 | 0.00 | 0.00 | 0.00 | 15 | 1010.7 |
| 20260502234402 | 31 | 123 | 3.2 | 9.7 | 0.00 | 0.00 | 0.00 | 15 | 1010.6 |
| 20260502233402 | 31 | 209 | 0.0 | 4.8 | 0.00 | 0.00 | 0.00 | 13 | 1010.5 |
| 20260502232402 | 31 | 244 | 3.2 | 8.0 | 0.00 | 0.00 | 0.00 | 13 | 1010.6 |
| 20260502231902 | 31 | 84 | 0.0 | 9.7 | 0.00 | 0.00 | 0.00 | 13 | 1010.7 |
| 20260502231402 | 31 | 114 | 4.8 | 9.7 | 0.00 | 0.00 | 0.00 | 13 | 1010.7 |
| 20260502230903 | 31 | 105 | 1.6 | 8.0 | 0.00 | 0.00 | 0.00 | 13 | 1010.8 |
| 20260502225902 | 31 | 101 | 3.2 | 11.3 | 0.00 | 0.00 | 0.00 | 13 | 1011.1 |
| 20260502225402 | 31 | 351 | 1.6 | 11.3 | 0.00 | 0.00 | 0.00 | 13 | 1011.1 |
| 20260502224902 | 31 | 63 | 3.2 | 11.3 | 0.00 | 0.00 | 0.00 | 12 | 1011.0 |
| 20260502224402 | 32 | 92 | 3.2 | 11.3 | 0.00 | 0.00 | 0.00 | 12 | 1011.1 |
| 20260502223902 | 32 | 182 | 4.8 | 12.9 | 0.00 | 0.00 | 0.00 | 12 | 1011.1 |
| 20260502223402 | 32 | 208 | 6.4 | 12.9 | 0.00 | 0.00 | 0.00 | 12 | 1011.0 |